When you browse on this site, cookies collect data to enhance your experience and personalize the content and advertising you see.
Visit our Privacy Policy to learn more. By continuing to use the site, you agree to this use of cookies and data.
  • In France
  • List of Countries
  • For 7 days
  • Water Temperature
  • Weather Map
  • Weather Widgets
  • user-avatar
    Login

    Hourly Weather Satif

    Today, 20 February, Thursday

    Time Temperature Precipitation Wind Pressure Humidity
    00:00 +4°C° 0 mm 1 mps 677 mmHg 90%
    01:00 +4°C° 0 mm 1 mps 676 mmHg 90%
    02:00 +4°C° 0 mm 1 mps 676 mmHg 89%
    03:00 +3°C° 0 mm 1 mps 675 mmHg 89%
    04:00 +3°C° 0 mm 1 mps 675 mmHg 87%
    05:00 +3°C° 0 mm 1 mps 675 mmHg 84%
    06:00 +3°C° 0 mm 1 mps 675 mmHg 82%
    07:00 +5°C° 0 mm 1 mps 675 mmHg 71%
    08:00 +7°C° 0 mm 1 mps 676 mmHg 59%
    09:00 +9°C° 0 mm 1 mps 677 mmHg 48%
    10:00 +11°C° 0 mm 1 mps 677 mmHg 45%
    11:00 +13°C° 0 mm 1 mps 677 mmHg 42%
    12:00 +14°C° 0 mm 1 mps 677 mmHg 38%
    13:00 +15°C° 0 mm 1 mps 677 mmHg 37%
    14:00 +15°C° 0 mm 1 mps 677 mmHg 36%
    15:00 +16°C° 0 mm 1 mps 676 mmHg 35%
    16:00 +14°C° 0 mm 1 mps 676 mmHg 44%
    17:00 +12°C° 0 mm 1 mps 676 mmHg 52%
    18:00 +10°C° 0 mm 1 mps 675 mmHg 61%
    19:00 +10°C° 0 mm 1 mps 675 mmHg 64%
    20:00 +9°C° 0 mm 1 mps 675 mmHg 67%
    21:00 +8°C° 0 mm 1 mps 676 mmHg 71%
    22:00 +8°C° 0 mm 1 mps 675 mmHg 72%
    23:00 +8°C° 0 mm 1 mps 675 mmHg 73%

    Tomorrow, 21 February, Friday

    Time Temperature Precipitation Wind Pressure Humidity
    00:00 +7°C° 0 mm 1 mps 675 mmHg 74%
    01:00 +7°C° 0 mm 1 mps 675 mmHg 74%
    02:00 +7°C° 0 mm 1 mps 675 mmHg 74%
    03:00 +7°C° 0 mm 1 mps 675 mmHg 75%
    04:00 +6°C° 0 mm 1 mps 675 mmHg 75%
    05:00 +6°C° 0 mm 1 mps 675 mmHg 75%
    06:00 +6°C° 0 mm 1 mps 675 mmHg 76%
    13:00 +15°C° 0 mm 1 mps 678 mmHg 42%
    14:00 +15°C° 0 mm 2 mps 678 mmHg 42%
    15:00 +16°C° 0 mm 2 mps 678 mmHg 43%
    16:00 +13°C° 0 mm 3 mps 678 mmHg 54%
    17:00 +11°C° 0 mm 3 mps 678 mmHg 65%
    18:00 +9°C° 0 mm 3 mps 677 mmHg 76%
    19:00 +8°C° 0 mm 2 mps 677 mmHg 79%
    20:00 +9°C° 0 mm 1 mps 677 mmHg 82%
    21:00 +7°C° 0 mm 0 mps 678 mmHg 85%
    22:00 +6°C° 0 mm 0 mps 677 mmHg 85%
    23:00 +6°C° 0 mm 0 mps 677 mmHg 86%

    Day after tomorrow, 22 February, Saturday

    Time Temperature Precipitation Wind Pressure Humidity
    00:00 +6°C° 0 mm 0 mps 677 mmHg 86%
    01:00 +6°C° 0 mm 1 mps 677 mmHg 87%
    02:00 +6°C° 0 mm 1 mps 677 mmHg 87%
    03:00 +6°C° 0 mm 1 mps 677 mmHg 87%
    04:00 +5°C° 0 mm 1 mps 677 mmHg 87%
    05:00 +5°C° 0 mm 1 mps 677 mmHg 86%
    06:00 +4°C° 0 mm 1 mps 677 mmHg 86%
    07:00 +6°C° 0 mm 1 mps 678 mmHg 75%
    08:00 +8°C° 0 mm 1 mps 679 mmHg 64%
    09:00 +10°C° 0 mm 1 mps 680 mmHg 53%
    10:00 +11°C° 0 mm 1 mps 680 mmHg 47%
    11:00 +13°C° 0 mm 1 mps 680 mmHg 40%
    12:00 +14°C° 0 mm 1 mps 681 mmHg 34%
    13:00 +14°C° 0 mm 1 mps 681 mmHg 35%
    14:00 +15°C° 0 mm 2 mps 681 mmHg 36%
    15:00 +14°C° 0 mm 3 mps 680 mmHg 37%
    16:00 +12°C° 0 mm 3 mps 680 mmHg 48%
    17:00 +10°C° 0 mm 3 mps 680 mmHg 59%
    18:00 +8°C° 0 mm 2 mps 679 mmHg 71%
    19:00 +7°C° 0 mm 2 mps 680 mmHg 74%
    20:00 +8°C° 0 mm 1 mps 680 mmHg 78%
    21:00 +6°C° 0 mm 0 mps 680 mmHg 81%
    22:00 +6°C° 0 mm 0 mps 680 mmHg 81%
    23:00 +5°C° 0 mm 0 mps 680 mmHg 80%

    23 February, Sunday

    Time Temperature Precipitation Wind Pressure Humidity
    00:00 +5°C° 0 mm 0 mps 680 mmHg 79%
    01:00 +5°C° 0 mm 0 mps 679 mmHg 78%
    02:00 +4°C° 0 mm 0 mps 679 mmHg 78%
    03:00 +4°C° 0 mm 0 mps 679 mmHg 77%
    04:00 +4°C° 0 mm 0 mps 679 mmHg 75%
    05:00 +4°C° 0 mm 0 mps 679 mmHg 73%
    06:00 +5°C° 0 mm 1 mps 679 mmHg 72%
    07:00 +7°C° 0 mm 1 mps 680 mmHg 63%
    08:00 +10°C° 0 mm 1 mps 681 mmHg 55%
    09:00 +12°C° 0 mm 1 mps 682 mmHg 46%
    10:00 +13°C° 0 mm 2 mps 682 mmHg 42%
    11:00 +15°C° 0 mm 2 mps 682 mmHg 37%
    12:00 +16°C° 0 mm 3 mps 682 mmHg 32%
    13:00 +16°C° 0 mm 3 mps 682 mmHg 33%
    14:00 +16°C° 0 mm 3 mps 682 mmHg 33%
    15:00 +17°C° 0 mm 3 mps 681 mmHg 33%
    16:00 +15°C° 0 mm 2 mps 681 mmHg 40%
    17:00 +13°C° 0 mm 2 mps 680 mmHg 48%
    18:00 +11°C° 0 mm 1 mps 680 mmHg 56%
    19:00 +10°C° 0 mm 1 mps 680 mmHg 57%
    20:00 +10°C° 0 mm 1 mps 680 mmHg 59%
    21:00 +9°C° 0 mm 1 mps 680 mmHg 61%
    22:00 +9°C° 0 mm 1 mps 680 mmHg 61%
    23:00 +9°C° 0 mm 1 mps 680 mmHg 62%

    24 February, Monday

    Time Temperature Precipitation Wind Pressure Humidity
    00:00 +8°C° 0 mm 1 mps 679 mmHg 63%
    01:00 +8°C° 0 mm 1 mps 679 mmHg 65%
    02:00 +8°C° 0 mm 1 mps 679 mmHg 66%
    03:00 +7°C° 0 mm 1 mps 678 mmHg 67%
    04:00 +7°C° 0 mm 1 mps 678 mmHg 68%
    05:00 +7°C° 0 mm 1 mps 678 mmHg 68%
    06:00 +7°C° 0 mm 1 mps 678 mmHg 69%
    07:00 +9°C° 0 mm 1 mps 678 mmHg 60%
    08:00 +11°C° 0 mm 1 mps 679 mmHg 51%
    09:00 +14°C° 0 mm 1 mps 680 mmHg 42%
    10:00 +15°C° 0 mm 1 mps 680 mmHg 37%
    11:00 +16°C° 0 mm 2 mps 680 mmHg 33%
    12:00 +17°C° 0 mm 2 mps 680 mmHg 28%
    13:00 +18°C° 0 mm 2 mps 680 mmHg 28%
    14:00 +18°C° 0 mm 2 mps 679 mmHg 27%
    15:00 +18°C° 0 mm 2 mps 679 mmHg 27%
    16:00 +16°C° 0 mm 2 mps 678 mmHg 34%
    17:00 +14°C° 0 mm 1 mps 678 mmHg 42%
    18:00 +12°C° 0 mm 1 mps 677 mmHg 49%
    19:00 +12°C° 0 mm 1 mps 677 mmHg 53%
    20:00 +11°C° 0 mm 1 mps 677 mmHg 57%
    21:00 +9°C° 0 mm 0 mps 677 mmHg 60%
    22:00 +9°C° 0 mm 0 mps 677 mmHg 60%
    23:00 +8°C° 0 mm 0 mps 676 mmHg 60%

    25 February, Tuesday

    Time Temperature Precipitation Wind Pressure Humidity
    00:00 +9°C° 0 mm 1 mps 676 mmHg 61%
    01:00 +9°C° 0 mm 1 mps 676 mmHg 62%
    02:00 +8°C° 0 mm 1 mps 675 mmHg 63%
    03:00 +8°C° 0 mm 1 mps 675 mmHg 65%
    04:00 +8°C° 0 mm 1 mps 674 mmHg 64%
    05:00 +8°C° 0 mm 1 mps 674 mmHg 64%
    06:00 +7°C° 0 mm 1 mps 674 mmHg 64%
    07:00 +9°C° 0 mm 2 mps 675 mmHg 54%
    08:00 +12°C° 0 mm 2 mps 676 mmHg 44%
    09:00 +15°C° 0 mm 2 mps 677 mmHg 35%
    10:00 +16°C° 0 mm 3 mps 677 mmHg 31%
    11:00 +17°C° 0 mm 3 mps 677 mmHg 28%
    12:00 +18°C° 0 mm 4 mps 677 mmHg 24%
    13:00 +18°C° 0 mm 4 mps 676 mmHg 25%
    14:00 +18°C° 0 mm 4 mps 676 mmHg 26%
    15:00 +18°C° 0 mm 4 mps 675 mmHg 27%
    16:00 +16°C° 0 mm 3 mps 675 mmHg 34%
    17:00 +14°C° 0 mm 2 mps 674 mmHg 40%
    18:00 +12°C° 0 mm 2 mps 674 mmHg 47%
    19:00 +11°C° 0 mm 1 mps 674 mmHg 50%
    20:00 +10°C° 0 mm 1 mps 674 mmHg 53%
    21:00 +9°C° 0 mm 1 mps 674 mmHg 57%
    22:00 +9°C° 0 mm 1 mps 674 mmHg 58%
    23:00 +9°C° 0 mm 1 mps 673 mmHg 59%
    Show more